DW9451 Bourne MA US current weather conditions

sailwx.info

Wind from 217 at 13 knots gusting 24

Last reported at 2019-Dec-09 23:01 UTC.
Time now 2019-Dec-10 00:01 UTC

Location: N 41°44' W 070°37'.
View on Google Maps.

See reports from other nearby stations

  
Tides and Currents Weather Stations Pressure Air Temp Water Temp Dewpoint Dewpoint Depression Visibility Wind Speed Wind Dir Waves Ship Positions
date/time (UTC)wind fromknots sea level pressurealtimeterstation pressurevisibilityair tempwater tempwave heightnotes
2019-Dec-09 23:01 217 13 gusting 24
2019-Dec-09 22:45 189 11 gusting 19
2019-Dec-09 22:30 217 8 gusting 21
2019-Dec-09 22:16 223 9 gusting 17
2019-Dec-09 22:00 263 5 gusting 13
2019-Dec-09 21:45 225 6 gusting 12
2019-Dec-09 21:30 222 7 gusting 18
2019-Dec-09 21:15 226 11 gusting 19
2019-Dec-09 21:02 220 12 gusting 19
2019-Dec-09 20:46 211 10 gusting 17
2019-Dec-09 20:31 215 10 gusting 19
2019-Dec-09 20:16 215 8 gusting 15
2019-Dec-09 20:01 216 6 gusting 14
2019-Dec-09 19:46 200 6 gusting 14
2019-Dec-09 19:30 215 8 gusting 14
2019-Dec-09 19:15 206 7 gusting 19
2019-Dec-09 19:00 213 9 gusting 17
2019-Dec-09 18:45 244 11 gusting 17
2019-Dec-09 18:30 222 10 gusting 18
2019-Dec-09 18:16 234 8 gusting 14
2019-Dec-09 18:02 225 9 gusting 15
2019-Dec-09 17:47 221 10 gusting 16
2019-Dec-09 17:15 198 7 gusting 13
2019-Dec-09 17:00 223 6 gusting 14
2019-Dec-09 16:46 211 7 gusting 12
2019-Dec-09 16:31 231 6 gusting 10
2019-Dec-09 16:15 219 7 gusting 15
2019-Dec-09 16:00 238 7 gusting 13
2019-Dec-09 15:45 214 8 gusting 14
2019-Dec-09 15:30 212 7 gusting 13
2019-Dec-09 15:15 221 6 gusting 11
2019-Dec-09 15:02
2019-Dec-09 14:47
2019-Dec-09 14:31
2019-Dec-09 14:17
2019-Dec-09 14:01
2019-Dec-09 13:45
2019-Dec-09 13:30
2019-Dec-09 13:15
2019-Dec-09 13:00
2019-Dec-09 12:45
2019-Dec-09 12:30
2019-Dec-09 12:16
2019-Dec-09 12:00
2019-Dec-09 11:45
2019-Dec-09 11:32
2019-Dec-09 11:18
2019-Dec-09 11:01
2019-Dec-09 10:46
2019-Dec-09 10:31
2019-Dec-09 10:16
2019-Dec-09 10:01
2019-Dec-09 09:45
2019-Dec-09 09:30
2019-Dec-09 09:15
2019-Dec-09 09:01 205 4 gusting 6
2019-Dec-09 08:45 209 4 gusting 9
2019-Dec-09 08:30 219 5 gusting 12
2019-Dec-09 08:15 221 2 gusting 6
2019-Dec-09 08:01 213 4 gusting 6
2019-Dec-09 07:46 221 3 gusting 8
2019-Dec-09 07:32 221 4 gusting 7
2019-Dec-09 07:16 219 3 gusting 9
2019-Dec-09 07:01 221 4 gusting 9
2019-Dec-09 06:46 215 5 gusting 11
2019-Dec-09 06:31 219 5 gusting 9
2019-Dec-09 06:15 233 6 gusting 9
2019-Dec-09 06:01 228 6 gusting 11
2019-Dec-09 05:45 219 4 gusting 11
2019-Dec-09 05:30 255 6 gusting 12
2019-Dec-09 05:15 223 6 gusting 13
2019-Dec-09 05:00 228 7 gusting 12
2019-Dec-09 04:47 217 5 gusting 10
2019-Dec-09 04:32 232 5 gusting 8
2019-Dec-09 04:16 227 6 gusting 8
2019-Dec-09 04:01 228 6 gusting 11
2019-Dec-09 03:45 226 6 gusting 11
2019-Dec-09 03:30 222 5 gusting 10
2019-Dec-09 03:15 219 5 gusting 10
2019-Dec-09 03:01 229 6 gusting 10
2019-Dec-09 02:46 219 6 gusting 9
2019-Dec-09 02:30 211 6 gusting 9
2019-Dec-09 02:15 219 4 gusting 8
2019-Dec-09 02:00 215 6 gusting 10
2019-Dec-09 01:46 221 5 gusting 10
2019-Dec-09 01:30 215 5 gusting 8
2019-Dec-09 01:15 220 6 gusting 11
2019-Dec-09 00:46 221 5 gusting 8
2019-Dec-09 00:31 215 5 gusting 9
2019-Dec-09 00:17 207 4 gusting 8
2019-Dec-09 00:02 212 5 gusting 9
2019-Dec-08 23:46 201 5 gusting 7
2019-Dec-08 23:31 211 4 gusting 7
2019-Dec-08 23:16 211 4 gusting 8
2019-Dec-08 23:01 220 4 gusting 8
2019-Dec-08 22:45 215 4 gusting 8
2019-Dec-08 22:30 216 4 gusting 6
2019-Dec-08 22:15 211 3 gusting 6
2019-Dec-08 22:00 205 2 gusting 6
2019-Dec-08 21:46 221 5 gusting 10
2019-Dec-08 21:30 230 5 gusting 9
2019-Dec-08 21:15 234 5 gusting 9
2019-Dec-08 21:00 249 5 gusting 9
2019-Dec-08 20:45 223 4 gusting 10
2019-Dec-08 20:32 241 5 gusting 10
2019-Dec-08 20:16 224 5 gusting 9
2019-Dec-08 20:01 259 5 gusting 10
2019-Dec-08 19:45 234 6 gusting 10
2019-Dec-08 19:30 244 5 gusting 10
2019-Dec-08 19:16 228 6 gusting 11
2019-Dec-08 19:01 213 5 gusting 9
2019-Dec-08 18:45 222 5 gusting 10
2019-Dec-08 18:30 253 4 gusting 8
2019-Dec-08 18:15 222 3 gusting 9
2019-Dec-08 18:00 236 3 gusting 7
2019-Dec-08 17:45 243 2 gusting 9
2019-Dec-08 17:30 247 3 gusting 8
2019-Dec-08 17:17 238 2 gusting 6
2019-Dec-08 17:02 255 2 gusting 9
2019-Dec-08 16:47 281 0 gusting 6
2019-Dec-08 16:31 242 2 gusting 6
2019-Dec-08 16:16 216 1 gusting 5
2019-Dec-08 16:01 219 1 gusting 6
2019-Dec-08 15:46 246 1 gusting 5
2019-Dec-08 15:31 291 0 gusting 3
2019-Dec-08 15:15 286
2019-Dec-08 15:00 232 0 gusting 2
2019-Dec-08 14:45 253
2019-Dec-08 14:30 264
2019-Dec-08 14:15 264
2019-Dec-08 14:00 355
2019-Dec-08 13:47 010
2019-Dec-08 13:31 011
2019-Dec-08 13:16 011
2019-Dec-08 13:02 011
2019-Dec-08 12:46 011
2019-Dec-08 12:31
2019-Dec-08 12:16
2019-Dec-08 12:00
2019-Dec-08 11:45
2019-Dec-08 11:30
2019-Dec-08 11:15
2019-Dec-08 11:00
2019-Dec-08 10:45
2019-Dec-08 10:33
2019-Dec-08 10:16
2019-Dec-08 10:01
2019-Dec-08 09:46
2019-Dec-08 09:31
2019-Dec-08 09:16
2019-Dec-08 09:01
2019-Dec-08 08:46
2019-Dec-08 08:31
2019-Dec-08 08:16
2019-Dec-08 08:00
2019-Dec-08 07:45
2019-Dec-08 07:30
2019-Dec-08 07:15 005
2019-Dec-08 07:02 005
2019-Dec-08 06:47 005
2019-Dec-08 06:31 029
2019-Dec-08 06:16 029
2019-Dec-08 06:01 022
2019-Dec-08 05:46 022
2019-Dec-08 05:31 022
2019-Dec-08 05:15 024
2019-Dec-08 05:00 338
2019-Dec-08 04:45 018
2019-Dec-08 04:30 005
2019-Dec-08 04:15 032
2019-Dec-08 04:00 030
2019-Dec-08 03:47 349
2019-Dec-08 03:31 018
2019-Dec-08 03:16 038
2019-Dec-08 03:02 052
2019-Dec-08 02:46 040
2019-Dec-08 02:32 053
2019-Dec-08 02:15 009
2019-Dec-08 02:00 026
2019-Dec-08 01:46 013
2019-Dec-08 01:31 029
2019-Dec-08 01:15 009
2019-Dec-08 01:00 044 0 gusting 6
2019-Dec-08 00:45 044
2019-Dec-08 00:32 349 0 gusting 6
2019-Dec-08 00:17 331
2019-Dec-08 00:01 344